TimeCST,TemperatureF,Dew PointF,Humidity,Sea Level PressureIn,VisibilityMPH,Wind Direction,Wind SpeedMPH,Gust SpeedMPH,PrecipitationIn,Events,Conditions,WindDirDegrees,DateUTC
12:15 AM,26.6,21.2,80,30.08,10.0,Calm,Calm,-,N/A,,Clear,0,2013-02-23 06:15:00
12:35 AM,26.6,19.4,74,30.07,10.0,Calm,Calm,-,N/A,,Clear,0,2013-02-23 06:35:00
12:55 AM,26.6,19.4,74,30.07,10.0,Calm,Calm,-,N/A,,Clear,0,2013-02-23 06:55:00
1:15 AM,26.6,19.4,74,30.07,10.0,Calm,Calm,-,N/A,,Clear,0,2013-02-23 07:15:00
1:35 AM,26.6,19.4,74,30.06,10.0,Calm,Calm,-,N/A,,Clear,0,2013-02-23 07:35:00
1:55 AM,26.6,19.4,74,30.06,10.0,Calm,Calm,-,N/A,,Clear,0,2013-02-23 07:55:00
2:15 AM,24.8,19.4,80,30.04,10.0,Calm,Calm,-,N/A,,Clear,0,2013-02-23 08:15:00
2:35 AM,24.8,19.4,80,30.04,10.0,Calm,Calm,-,N/A,,Clear,0,2013-02-23 08:35:00
2:55 AM,24.8,19.4,80,30.03,10.0,Calm,Calm,-,N/A,,Clear,0,2013-02-23 08:55:00
3:15 AM,23.0,17.6,80,30.03,9.0,Calm,Calm,-,N/A,,Clear,0,2013-02-23 09:15:00
3:35 AM,24.8,19.4,80,30.03,9.0,Calm,Calm,-,N/A,,Clear,0,2013-02-23 09:35:00
3:55 AM,23.0,19.4,86,30.02,7.0,Calm,Calm,-,N/A,,Clear,0,2013-02-23 09:55:00
4:15 AM,21.2,19.4,93,30.02,7.0,Calm,Calm,-,N/A,,Clear,0,2013-02-23 10:15:00
4:35 AM,21.2,19.4,93,30.02,8.0,Calm,Calm,-,N/A,,Clear,0,2013-02-23 10:35:00
4:55 AM,23.0,19.4,86,30.00,7.0,Calm,Calm,-,N/A,,Clear,0,2013-02-23 10:55:00
5:15 AM,23.0,19.4,86,30.00,7.0,Calm,Calm,-,N/A,,Clear,0,2013-02-23 11:15:00
5:35 AM,23.0,19.4,86,29.99,9.0,Calm,Calm,-,N/A,,Clear,0,2013-02-23 11:35:00
5:55 AM,21.2,17.6,86,29.99,10.0,Calm,Calm,-,N/A,,Clear,0,2013-02-23 11:55:00
6:15 AM,23.0,19.4,86,30.01,7.0,Calm,Calm,-,N/A,,Clear,0,2013-02-23 12:15:00
6:35 AM,23.0,19.4,86,30.00,7.0,Calm,Calm,-,N/A,,Clear,0,2013-02-23 12:35:00
6:55 AM,21.2,17.6,86,30.00,5.0,Calm,Calm,-,N/A,,Clear,0,2013-02-23 12:55:00
7:15 AM,21.2,17.6,86,30.00,7.0,Calm,Calm,-,N/A,,Clear,0,2013-02-23 13:15:00
7:35 AM,23.0,17.6,80,30.01,9.0,Calm,Calm,-,N/A,,Clear,0,2013-02-23 13:35:00
7:55 AM,23.0,17.6,80,30.01,10.0,Calm,Calm,-,N/A,,Clear,0,2013-02-23 13:55:00
8:15 AM,24.8,17.6,74,30.01,10.0,Calm,Calm,-,N/A,,Clear,0,2013-02-23 14:15:00
8:35 AM,26.6,17.6,69,30.01,10.0,Calm,Calm,-,N/A,,Clear,0,2013-02-23 14:35:00
8:55 AM,26.6,15.8,64,30.02,10.0,Calm,Calm,-,N/A,,Clear,0,2013-02-23 14:55:00
9:15 AM,26.6,17.6,69,30.03,10.0,Calm,Calm,-,N/A,,Clear,0,2013-02-23 15:15:00
9:35 AM,26.6,15.8,64,30.02,10.0,Calm,Calm,-,N/A,,Clear,0,2013-02-23 15:35:00
9:55 AM,28.4,19.4,69,30.03,10.0,Calm,Calm,-,N/A,,Clear,0,2013-02-23 15:55:00
10:15 AM,30.2,15.8,55,30.03,10.0,Calm,Calm,-,N/A,,Clear,0,2013-02-23 16:15:00
10:35 AM,30.2,15.8,55,30.03,10.0,Calm,Calm,-,N/A,,Clear,0,2013-02-23 16:35:00
10:55 AM,32.0,15.8,51,30.03,10.0,Calm,Calm,-,N/A,,Clear,0,2013-02-23 16:55:00
11:15 AM,33.8,15.8,48,30.04,10.0,Calm,Calm,-,N/A,,Clear,0,2013-02-23 17:15:00
11:35 AM,33.8,17.6,52,30.03,10.0,West,4.6,-,N/A,,Clear,260,2013-02-23 17:35:00
11:55 AM,35.6,19.4,52,30.03,10.0,WNW,4.6,-,N/A,,Clear,300,2013-02-23 17:55:00
12:15 PM,35.6,19.4,52,30.03,10.0,West,5.8,-,N/A,,Clear,270,2013-02-23 18:15:00
12:35 PM,37.4,19.4,48,30.02,10.0,SW,6.9,-,N/A,,Clear,230,2013-02-23 18:35:00
12:55 PM,37.4,21.2,52,30.02,10.0,WSW,3.5,-,N/A,,Clear,240,2013-02-23 18:55:00
1:15 PM,39.2,21.2,49,30.01,10.0,SSW,3.5,-,N/A,,Partly Cloudy,210,2013-02-23 19:15:00
1:35 PM,39.2,19.4,45,29.99,10.0,West,10.4,-,N/A,,Partly Cloudy,270,2013-02-23 19:35:00
1:55 PM,41.0,19.4,42,29.99,10.0,WSW,8.1,-,N/A,,Clear,250,2013-02-23 19:55:00
2:15 PM,41.0,21.2,45,29.98,10.0,West,9.2,-,N/A,,Clear,260,2013-02-23 20:15:00
2:35 PM,41.0,21.2,45,29.97,10.0,WNW,8.1,-,N/A,,Clear,300,2013-02-23 20:35:00
2:55 PM,42.8,21.2,42,29.96,10.0,WNW,8.1,-,N/A,,Clear,300,2013-02-23 20:55:00
3:15 PM,42.8,24.8,49,29.96,10.0,NW,4.6,-,N/A,,Clear,310,2013-02-23 21:15:00
3:35 PM,42.8,21.2,42,29.95,10.0,WNW,5.8,-,N/A,,Clear,290,2013-02-23 21:35:00
3:55 PM,42.8,21.2,42,29.94,10.0,Calm,Calm,-,N/A,,Clear,0,2013-02-23 21:55:00
4:15 PM,42.8,19.4,39,29.94,10.0,Calm,Calm,-,N/A,,Clear,0,2013-02-23 22:15:00
4:35 PM,42.8,21.2,42,29.93,10.0,Calm,Calm,-,N/A,,Clear,0,2013-02-23 22:35:00
4:55 PM,44.6,23.0,43,29.94,10.0,Calm,Calm,-,N/A,,Clear,0,2013-02-23 22:55:00
5:15 PM,42.8,23.0,46,29.94,10.0,NW,4.6,-,N/A,,Clear,310,2013-02-23 23:15:00
5:35 PM,42.8,23.0,46,29.93,10.0,Calm,Calm,-,N/A,,Clear,0,2013-02-23 23:35:00
5:55 PM,42.8,23.0,46,29.94,10.0,Calm,Calm,-,N/A,,Clear,0,2013-02-23 23:55:00
6:15 PM,39.2,23.0,52,29.94,10.0,Calm,Calm,-,N/A,,Clear,0,2013-02-24 00:15:00
6:55 PM,37.4,19.4,48,29.94,10.0,Calm,Calm,-,N/A,,Clear,0,2013-02-24 00:55:00
7:15 PM,37.4,21.2,52,29.94,10.0,Calm,Calm,-,N/A,,Clear,0,2013-02-24 01:15:00
7:35 PM,35.6,23.0,60,29.95,10.0,Calm,Calm,-,N/A,,Clear,0,2013-02-24 01:35:00
7:55 PM,35.6,24.8,65,29.96,10.0,Calm,Calm,-,N/A,,Clear,0,2013-02-24 01:55:00
8:15 PM,33.8,24.8,70,29.95,10.0,Calm,Calm,-,N/A,,Clear,0,2013-02-24 02:15:00
8:35 PM,35.6,23.0,60,29.95,10.0,NE,3.5,-,N/A,,Clear,50,2013-02-24 02:35:00
8:55 PM,33.8,21.2,60,29.95,10.0,ENE,3.5,-,N/A,,Clear,70,2013-02-24 02:55:00
9:15 PM,35.6,21.2,56,29.95,10.0,East,3.5,-,N/A,,Clear,90,2013-02-24 03:15:00
9:35 PM,35.6,21.2,56,29.95,10.0,East,3.5,-,N/A,,Clear,90,2013-02-24 03:35:00
9:55 PM,33.8,21.2,60,29.95,10.0,East,4.6,-,N/A,,Clear,90,2013-02-24 03:55:00
10:15 PM,33.8,21.2,60,29.95,10.0,East,4.6,-,N/A,,Clear,90,2013-02-24 04:15:00
10:35 PM,33.8,21.2,60,29.95,10.0,ESE,5.8,-,N/A,,Clear,120,2013-02-24 04:35:00
10:55 PM,32.0,21.2,64,29.95,10.0,SE,3.5,-,N/A,,Clear,140,2013-02-24 04:55:00
11:15 PM,32.0,23.0,69,29.95,10.0,Calm,Calm,-,N/A,,Clear,0,2013-02-24 05:15:00
11:35 PM,32.0,23.0,69,29.95,10.0,ESE,3.5,-,N/A,,Clear,110,2013-02-24 05:35:00
11:55 PM,32.0,21.2,64,29.95,10.0,ESE,3.5,-,N/A,,Clear,110,2013-02-24 05:55:00